{"data":{"norad_id":48353,"intl_designator":"2021-038A","name":"STARLINK-2613","alt_names":[],"object_type":"PAYLOAD","status":"ACTIVE","operator":null,"country":"US","launch_date":"2021-05-04","launch_site_code":"AFETR","launch_vehicle":null,"mission":null,"orbit_class":"UNKNOWN","rcs_meters":null,"size_class":null,"mass_kg":null,"dimensions":null,"purposes":["comms"],"wikipedia_slug":null,"has_3d_model":false,"image_url":null,"decayed_at":null,"tle_current":{"epoch":"2026-05-25T00:31:47.315424Z","epoch_age_seconds":69206,"freshness":"FRESH","line1":"1 48353U 21038A   26145.02207541  .00007386  00000+0  24941-3 0  9992","line2":"2 48353  53.1604   3.1100 0000971  91.2925 268.8187 15.31715690278773","mean_motion":15.3171569,"eccentricity":9.71e-5,"inclination_deg":53.1604,"raan_deg":3.11,"arg_perigee_deg":91.2925,"mean_anomaly_deg":268.8187,"bstar":0.00024941,"rev_number":27877,"period_min":94.012224944957,"perigee_km":470.02820313653,"apogee_km":471.35824596614,"semimajor_km":6848.8302245513,"source":"CELESTRAK","updated_at":"2026-05-25T13:38:16.684181Z"}}}